Tracking 17145 objects as of 23-May-2015
HD Live streaming from Space Station

COSMOS 2128

Track COSMOS 2128 now!
10-day predictions
COSMOS 2128 is classified as:


NORAD ID: 21103
Int'l Code: 1991-009D
Perigee: 1,452.5 km
Apogee: 1,475.2 km
Inclination: 74.0 °
Period: 115.0 minutes
Semi major axis: 7834 km
RCS: 0.6873 m2 (medium)
Launch date: February 12, 1991
Source: Commonwealth of Independent States (former USSR) (CIS)
Your satellite tracking list
Your tracking list is empty





NASA's NSSDC Master Catalog

Two Line Element Set (TLE):
1 21103U 91009D   15142.76062075  .00000007  00000-0  14806-3 0  9991
2 21103 074.0309 250.1196 0014487 055.3260 058.3485 12.51867142109416

Source of the keplerian elements: AFSPC

N2YO: 370